This demonstration page uses our WeatherBlox Daily Observations layout. Learn more.

Left ArrowRight Arrow

36.19886, -115.1175

Hourly Observations for April 23, 2021

Temp ( °F °C ) Dew Point ( °F °C ) Humidity (%) Winds ( mph kmh ) Pressure ( in mb ) Visibility ( mi km ) Precip ( " mm )
12:53 am 00:53 Clear 68 20 7 -13.9 9 9 NNW 10 17 29.67 1005 10 16 N/A
1:53 am 01:53 Clear 66 18.9 9 -12.8 10 10 WNW 10 17 29.68 1005 10 16 N/A
2:53 am 02:53 Clear 64 17.8 9 -12.8 11 11 WNW 8 13 29.68 1005 10 16 N/A
3:53 am 03:53 Clear 67 19.4 8 -13.3 10 10 NW 14 22 29.69 1006 10 16 N/A
4:53 am 04:53 Clear 67 19.4 7 -13.9 9 9 NNW 13 20 29.70 1006 10 16 N/A
5:53 am 05:53 Clear 66 18.9 7 -13.9 10 10 NW 15 24 29.73 1007 10 16 N/A
6:53 am 06:53 Sunny 67 19.4 9 -12.8 10 10 NW 12 19 29.77 1008 10 16 N/A
7:53 am 07:53 Sunny 69 20.6 12 -11.1 11 11 N N/A 29.80 1009 10 16 N/A
8:53 am 08:53 Sunny 75 23.9 21 -6.1 13 13 NNW 20 31 29.80 1009 10 16 N/A
9:53 am 09:53 Sunny 78 25.6 21 -6.1 12 12 NNW 16 26 29.81 1009 10 16 N/A
10:53 am 10:53 Sunny 80 26.7 21 -6.1 11 11 WNW 15 24 29.81 1010 10 16 N/A
11:53 am 11:53 Sunny 81 27.2 20 -6.7 10 10 NNW 12 19 29.80 1009 10 16 N/A
12:53 pm 12:53 Sunny 81 27.2 21 -6.1 11 11 undefined N/A 29.79 1009 10 16 N/A
1:53 pm 13:53 Sunny 82 27.8 21 -6.1 10 10 WSW 8 13 29.77 1008 10 16 N/A
2:53 pm 14:53 Sunny 85 29.4 18 -7.8 8 8 S 10 17 29.75 1007 10 16 N/A
3:53 pm 15:53 Sunny 86 30 16 -8.9 7 7 WNW 9 15 29.74 1007 10 16 N/A
4:53 pm 16:53 Sunny 85 29.4 15 -9.4 7 7 W 7 11 29.73 1007 10 16 N/A
5:53 pm 17:53 Sunny 85 29.4 15 -9.4 7 7 N N/A 29.73 1007 10 16 N/A
6:53 pm 18:53 Sunny 83 28.3 18 -7.8 9 9 W 6 9 29.73 1007 10 16 N/A
7:53 pm 19:53 Clear 81 27.2 18 -7.8 9 9 SW 13 20 29.74 1007 10 16 N/A
8:53 pm 20:53 Clear 79 26.1 18 -7.8 10 10 SW 9 15 29.75 1008 10 16 N/A
9:53 pm 21:53 Clear 77 25 19 -7.2 11 11 SW 8 13 29.76 1008 10 16 N/A
10:53 pm 22:53 Clear 75 23.9 20 -6.7 12 12 VRB 3 6 29.76 1008 10 16 N/A
11:53 pm 23:53 Clear 71 21.7 20 -6.7 14 14 S 6 9 29.77 1008 10 16 N/A

Powered by AerisWeather